"Pseudo-MPEC" for P11Uv0t

Created 2024 May 17 0:22:09 UT using Find_Orb

Click here for an explanation of pseudo-MPECs

 
 Astrometry: 
     P11Uv0t* C2024 05 08%YsTI5^QcY3]OB/)!AstrometryWY\_ys9Bx@8#Se1TIW`2jsItoF51
     P11Uv0t  C2024 05 082#qi7-(6[()redacted;]J[#8W\I3jrDP^5#-cs?@DbW+DGfM*JQF51
     P11Uv0t  C2024 05 08e'HclickW8*NRhereJfor%69(wUCyexplanationXT+#Vq*`u5W]F51

Station data:
(F51) Pan-STARRS 1, Haleakala  (N20.707234 W156.255910)  US/Hawaii.
   Observers J. Bulger, T. Lowe, A. Schultz, M. Willman. Measurers K.
   Chambers, S. Chastel, T. de Boer, L. Denneau, J. Fairlamb, H. Flewelling,
   M. Huber, C.-C. Lin, E. Magnier, Y. Ramanjooloo, R. Wainscoat, R. Weryk.
   1.8-m Ritchey-Chrétien + CCD.

Orbital elements:  P11Uv0t
   Perihelion 2024 Apr 9.74593 +/- 42.1 TT = 17:54:08 (JD 2460410.24593)
Epoch 2024 May  9.0 TT = JDT 2460439.5   Earth MOID: 0.1437      AutoNEOCP
M  10.62840400 +/- 20               (J2000 ecliptic)
n   0.36331364 +/- 0.287            Peri.  349.90837 +/- 80
a   1.94512825 +/- 1.03             Node   213.02673 +/- 60
e   0.4114306 +/- 0.261             Incl.   18.91646 +/- 8
P   2.71/990.86d           H 23.87  G  0.15   U 11.9  SR
q 1.14484291 +/- 0.228    Q 2.74541359 +/- 39.8
From 3 observations 2024 May 8 (35.7 min); mean residual 0".07
Residuals in arcseconds: 
240508 F51  .03-  .07-    240508 F51  .05+  .14+    240508 F51  .03-  .07-    

Ephemerides (geocentric):
Date (UTC) HH   RA             Dec           delta  r     elong  mag " sig PA
---- --------  ------------   ------------  ------ ------ -----  --- --------
2024 05 17 00  16 11 14.366   +20 52 22.35  .24450 1.2062 138.9 22.6  51d  87
2024 05 17 01  16 11 16.894   +20 53 58.04  .24473 1.2064 138.9 22.6  51d  86
2024 05 17 02  16 11 19.417   +20 55 33.44  .24496 1.2065 138.8 22.6  51d  86
2024 05 17 03  16 11 21.935   +20 57 08.54  .24519 1.2066 138.8 22.6  51d  86
2024 05 17 04  16 11 24.447   +20 58 43.36  .24541 1.2068 138.8 22.6  51d  86
2024 05 17 05  16 11 26.954   +21 00 17.88  .24564 1.2069 138.7 22.6  51d  86
2024 05 17 06  16 11 29.456   +21 01 52.11  .24587 1.2070 138.7 22.6  51d  86
2024 05 17 07  16 11 31.952   +21 03 26.06  .24610 1.2072 138.7 22.6  50d  83
2024 05 17 08  16 11 34.442   +21 04 59.71  .24633 1.2073 138.7 22.6  50d  83
2024 05 17 09  16 11 36.927   +21 06 33.08  .24656 1.2074 138.6 22.6  50d  83
2024 05 17 10  16 11 39.407   +21 08 06.16  .24679 1.2076 138.6 22.6  50d  83
2024 05 17 11  16 11 41.882   +21 09 38.95  .24702 1.2077 138.6 22.6  50d  83
2024 05 17 12  16 11 44.351   +21 11 11.45  .24725 1.2078 138.5 22.6  51d  83
2024 05 17 13  16 11 46.815   +21 12 43.67  .24748 1.2080 138.5 22.6  51d  83
2024 05 17 14  16 11 49.274   +21 14 15.61  .24771 1.2081 138.5 22.7  51d  83
2024 05 17 15  16 11 51.727   +21 15 47.26  .24794 1.2082 138.5 22.7  51d  83
2024 05 17 16  16 11 54.176   +21 17 18.63  .24817 1.2084 138.4 22.7  51d  83
2024 05 17 17  16 11 56.618   +21 18 49.71  .24840 1.2085 138.4 22.7  51d  83
2024 05 17 18  16 11 59.056   +21 20 20.51  .24863 1.2086 138.4 22.7  51d  83
2024 05 17 19  16 12 01.489   +21 21 51.02  .24886 1.2088 138.4 22.7  51d  83
2024 05 17 20  16 12 03.916   +21 23 21.26  .24909 1.2089 138.3 22.7  51d  83
2024 05 17 21  16 12 06.338   +21 24 51.21  .24932 1.2090 138.3 22.7  51d  83
2024 05 17 22  16 12 08.755   +21 26 20.89  .24955 1.2092 138.3 22.7  51d  83
2024 05 17 23  16 12 11.166   +21 27 50.28  .24978 1.2093 138.2 22.7  51d  83
2024 05 18 00  16 12 13.573   +21 29 19.40  .25001 1.2094 138.2 22.7  51d  83
2024 05 18 01  16 12 15.975   +21 30 48.23  .25024 1.2096 138.2 22.7  51d  83
2024 05 18 02  16 12 18.371   +21 32 16.79  .25048 1.2097 138.2 22.7  52d  83
2024 05 18 03  16 12 20.762   +21 33 45.07  .25071 1.2098 138.1 22.7  52d  83
2024 05 18 04  16 12 23.148   +21 35 13.07  .25094 1.2100 138.1 22.7  52d  83
2024 05 18 05  16 12 25.529   +21 36 40.79  .25117 1.2101 138.1 22.7  52d  83
2024 05 18 06  16 12 27.905   +21 38 08.24  .25140 1.2102 138.1 22.7  52d  84
2024 05 18 07  16 12 30.276   +21 39 35.42  .25164 1.2104 138.0 22.7  52d  84
2024 05 18 08  16 12 32.642   +21 41 02.32  .25187 1.2105 138.0 22.7  52d  84
2024 05 18 09  16 12 35.003   +21 42 28.94  .25210 1.2106 138.0 22.7  52d  84
2024 05 18 10  16 12 37.359   +21 43 55.29  .25233 1.2108 137.9 22.7  52d  84
2024 05 18 11  16 12 39.710   +21 45 21.37  .25257 1.2109 137.9 22.7  52d  84
2024 05 18 12  16 12 42.056   +21 46 47.17  .25280 1.2110 137.9 22.7  53d  84
2024 05 18 13  16 12 44.397   +21 48 12.71  .25303 1.2112 137.9 22.7  53d  84
2024 05 18 14  16 12 46.733   +21 49 37.97  .25327 1.2113 137.8 22.7  53d  84
2024 05 18 15  16 12 49.064   +21 51 02.96  .25350 1.2114 137.8 22.7  53d  84
2024 05 18 16  16 12 51.390   +21 52 27.68  .25373 1.2116 137.8 22.7  53d  84
2024 05 18 17  16 12 53.711   +21 53 52.13  .25397 1.2117 137.8 22.7  53d  84
2024 05 18 18  16 12 56.028   +21 55 16.31  .25420 1.2118 137.7 22.7  53d  84
2024 05 18 19  16 12 58.339   +21 56 40.22  .25443 1.2120 137.7 22.7  53d  84
2024 05 18 20  16 13 00.646   +21 58 03.86  .25467 1.2121 137.7 22.7  54d  84
2024 05 18 21  16 13 02.948   +21 59 27.24  .25490 1.2123 137.7 22.7  54d  84
2024 05 18 22  16 13 05.244   +22 00 50.34  .25513 1.2124 137.6 22.7  54d  84
2024 05 18 23  16 13 07.537   +22 02 13.19  .25537 1.2125 137.6 22.7  54d  84